Location: Baili�vre
(50.0696°N, 4.2409°E)
Time: 03:30:06
(UTC+00:00)

Cosmos 1697 Rocket - Pass Details

Date: 08 August 2020
Orbit: 834 x 842 km, 71.0° (Epoch: 25 September)

Event Time Altitude Azimuth Distance (km) Brightness Sun altitude
Rises 20:50:22 0° 327° (NNW) 3,392 7.6 -13.4°
Reaches altitude 10° 20:52:52 10° 322° (NW) 2,454 6.6 -13.6°
Maximum altitude 20:58:16 49° 249° (WSW) 1,066 3.4 -14.2°
Enters shadow 21:02:58 13° 178° (S) 2,201 4.4 -14.7°
